GW6843 Weather Reports


time (UTC)temp
F
wind
direction
speed
knots
gust
knots
rain 1hr
in
rain 24hr
in
rain mn
in
humidity
%
barometer
mb
20260505064535 45 306 0.0 1.7 0.00 0.12 0.10 85 1012.5
20260505063515 45 0.0 0.0 0.00 0.12 0.10 86 1012.4
20260505062515 45 0.0 0.0 0.00 0.12 0.10 87 1012.4
20260505061535 45 319 0.0 1.7 0.00 0.12 0.10 86 1012.4
20260505060515 45 316 0.9 1.7 0.00 0.12 0.10 86 1012.5
20260505055535 45 282 0.0 1.7 0.00 0.12 0.10 87 1012.4
20260505054515 45 0.0 1.7 0.00 0.12 0.10 86 1012.5
20260505053515 46 282 0.0 1.7 0.00 0.12 0.10 86 1012.4
20260505052515 45 282 0.9 2.6 0.00 0.12 0.10 83 1012.6
20260505051515 46 278 0.9 1.7 0.00 0.12 0.10 85 1012.6
20260505050515 46 0.0 0.0 0.00 0.12 0.10 84 1012.9
20260505041515 46 264 1.7 3.5 0.05 0.12 0.10 83 1013.4
20260505040515 45 229 0.0 1.7 0.07 0.12 0.10 84 1013.5
20260505035515 46 229 0.9 1.7 0.08 0.12 0.10 83 1013.4
20260505034515 46 229 0.0 1.7 0.09 0.11 0.09 82 1013.3
20260505033515 46 229 0.0 0.9 0.07 0.09 0.07 81 1013.4
20260505032535 46 250 1.7 7.8 0.06 0.08 0.06 79 1013.5
20260505031515 47 319 2.6 10.4 0.05 0.07 0.05 78 1013.4
20260505030538 48 357 5.2 12.2 0.03 0.05 0.03 76 1013.2
20260505025557 49 351 3.5 9.6 0.02 0.04 0.02 72 1012.9
20260505024515 50 1 0.9 2.6 0.00 0.02 0.00 71 1012.7
20260505023538 50 346 0.9 3.5 0.00 0.02 0.00 69 1012.5
20260505022518 50 18 1.7 10.4 0.00 0.02 0.00 67 1012.3
20260505021516 53 28 6.1 11.3 0.00 0.02 0.00 60 1011.9
20260505020517 53 149 0.0 1.7 0.00 0.02 0.00 56 1011.5
20260505015517 53 149 0.0 1.7 0.00 0.02 0.00 57 1011.7
20260505014517 54 148 0.9 1.7 0.00 0.02 0.00 57 1011.6
20260505013517 54 76 0.9 3.5 0.00 0.02 0.00 56 1011.3
20260505012516 54 101 1.7 3.5 0.00 0.02 0.00 54 1011.5
20260505011537 54 181 0.9 2.6 0.00 0.02 0.00 56 1011.4
20260505010517 54 186 0.9 4.3 0.00 0.02 0.00 56 1011.3
20260505005516 54 177 0.9 4.3 0.00 0.02 0.00 57 1011.2
20260505004517 54 203 4.3 10.4 0.00 0.02 0.00 55 1011.3
20260505003517 55 199 6.1 10.4 0.00 0.02 0.00 55 1011.2
20260505002517 57 193 7.0 13.9 0.00 0.02 0.00 47 1011.2
20260505001518 57 305 0.9 3.5 0.00 0.02 0.00 44 1011.4
20260505000516 57 338 1.7 4.3 0.00 0.02 0.00 46 1011.3
20260504235517 57 34 1.7 4.3 0.00 0.02 0.02 46 1011.1
20260504234515 57 15 2.6 5.2 0.00 0.02 0.02 45 1011.0
20260504233515 57 12 1.7 8.7 0.00 0.02 0.02 46 1010.8
20260504232515 57 19 4.3 10.4 0.00 0.02 0.02 45 1010.7
20260504231515 57 353 5.2 13.0 0.00 0.02 0.02 46 1010.7
20260504230515 57 21 7.0 13.9 0.00 0.02 0.02 45 1010.7
20260504225515 58 16 7.8 15.6 0.00 0.02 0.02 45 1010.7
20260504224555 59 10 6.1 13.0 0.00 0.02 0.02 42 1010.7
20260504223515 59 22 6.1 13.0 0.00 0.02 0.02 42 1010.7
20260504222515 58 20 7.8 15.6 0.00 0.02 0.02 42 1010.8
20260504221515 59 6 6.1 15.6 0.00 0.02 0.02 39 1010.7
20260504220515 60 25 9.6 18.2 0.00 0.02 0.02 36 1010.5
20260504215515 61 18 6.1 19.1 0.00 0.02 0.02 35 1010.3
20260504214515 64 29 5.2 13.0 0.00 0.02 0.02 29 1009.9
20260504213515 66 91 5.2 11.3 0.00 0.02 0.02 28 1009.3
20260504212515 67 152 2.6 7.0 0.00 0.02 0.02 29 1009.2
20260504211515 67 143 3.5 7.8 0.00 0.02 0.02 29 1009.2
20260504210515 66 174 4.3 9.6 0.00 0.02 0.02 30 1009.7
20260504205555 66 146 1.7 7.0 0.00 0.02 0.02 31 1009.8
20260504204535 65 98 2.6 6.1 0.00 0.02 0.02 31 1009.8
20260504203535 65 126 1.7 7.0 0.00 0.02 0.02 33 1010.1
20260504202515 64 131 3.5 7.8 0.00 0.02 0.02 34 1010.3
20260504201515 62 119 1.7 4.3 0.00 0.02 0.02 39 1010.6
20260504200515 61 9 1.7 10.4 0.01 0.02 0.02 37 1010.8
20260504195515 61 75 0.9 3.5 0.02 0.02 0.02 38 1011.0
20260504194515 61 350 0.9 3.5 0.02 0.02 0.02 37 1010.9
20260504193515 61 181 2.6 8.7 0.02 0.02 0.02 39 1010.5
20260504192515 61 172 4.3 13.0 0.02 0.02 0.02 41 1010.5
20260504191515 59 206 6.1 9.6 0.02 0.02 0.02 46 1010.7
20260504190515 62 307 3.5 7.8 0.01 0.01 0.01 36 1010.3
20260504185515 65 239 7.8 15.6 0.00 0.00 0.00 29 1010.0
20260504184515 67 167 1.7 5.2 0.00 0.00 0.00 25 1009.7
20260504183515 67 11 1.7 11.3 0.00 0.00 0.00 24 1009.5
20260504182515 68 0 4.3 9.6 0.00 0.00 0.00 23 1009.5
20260504181515 68 309 2.6 10.4 0.00 0.00 0.00 22 1009.4
20260504180515 69 340 3.5 7.8 0.00 0.00 0.00 23 1009.4
20260504175515 69 251 2.6 6.1 0.00 0.00 0.00 22 1009.5
20260504174516 70 240 1.7 7.8 0.00 0.00 0.00 22 1009.7
20260504173517 69 17 1.7 8.7 0.00 0.00 0.00 23 1009.8
20260504172517 68 226 4.3 12.2 0.00 0.00 0.00 22 1010.1
20260504171517 68 80 3.5 12.2 0.00 0.00 0.00 24 1010.2
20260504170537 66 265 1.7 9.6 0.00 0.00 0.00 25 1010.3
20260504150517 60 287 4.3 10.4 0.00 0.00 0.00 27 1011.7
20260504140515 55 271 7.8 14.8 0.00 0.00 0.00 29 1011.7
20260504130535 52 269 10.4 20.0 0.00 0.00 0.00 30 1011.1
20260504110537 52 252 11.3 17.4 0.00 0.00 0.00 31 1011.0
20260504100517 52 251 6.1 13.0 0.00 0.00 0.00 31 1011.4
20260504081517 53 277 5.2 12.2 0.00 0.00 0.00 32 1012.0
20260504080515 53 301 5.2 12.2 0.00 0.00 0.00 32 1012.3